Ashland, WI

12:13 AM CST on February 25, 2017 (GMT -0600)
Kennedy Memorial

Weather History for KASX - November, 2012

Change the Weather History Date:

Saturday, November 3, 2012

  Actual Average Record
Temperature  
Mean Temperature 34 °F -  
Max Temperature 41 °F 45 °F 74 °F (1978)
Min Temperature 28 °F 29 °F -11 °F (1951)
Degree Days  
Heating Degree Days 32    
Moisture  
Dew Point 24 °F    
Average Humidity 73    
Maximum Humidity 88    
Minimum Humidity 58    
Precipitation  
Precipitation 0.00 in - - ()
Sea Level Pressure  
Sea Level Pressure 30.29 in    
Wind  
Wind Speed 4 mph (East)    
Max Wind Speed 9 mph    
Max Gust Speed -    
Visibility 10 miles    
Events Snow    
Averages and records for this station are not official NWS values.
T = Trace of Precipitation, MM = Missing Value Source: NWS Daily Summary

Daily Weather History Graph

Daily Weather History Graph

Search for Another Location

Airport or City:

Trip Planner

Search our weather history database for the weather conditions in past years. The results will help you decide how hot, cold, wet, or windy it might be!

Date:

Astronomy

Nov. 03, 2012 Rise Set
Actual Time 7:49 AM CDT 5:44 PM CDT
Civil Twilight 7:17 AM CDT 6:16 PM CDT
Nautical Twilight 6:41 AM CDT 6:52 PM CDT
Astronomical Twilight 6:06 AM CDT 7:27 PM CDT
Moon 9:20 PM CDT (11/3) 11:59 AM CDT (11/3)
Length of Visible Light 10h 59m
Length of Day
9h 55m
Waning Gibbous, 80% of the Moon is Illuminated
Nov 3
Waning Gibbous
Nov 6
Last Quarter
Nov 13
New
Nov 20
First Quarter
Nov 28
Full

Hourly Weather History & Observations

Time (CDT) Temp. Windchill Dew Point Humidity Pressure Visibility Wind Dir Wind Speed Gust Speed Precip Events Conditions
12:53 AM 28.0 °F 22.8 °F 21.9 °F 78% 30.27 in 10.0 mi ESE 4.6 mph - N/A   Overcast
1:53 AM 28.9 °F 25.2 °F 21.9 °F 75% 30.28 in 10.0 mi SE 3.5 mph - N/A   Overcast
2:53 AM 28.0 °F 24.2 °F 21.9 °F 78% 30.29 in 10.0 mi SSE 3.5 mph - N/A   Overcast
3:53 AM 28.0 °F 24.2 °F 21.9 °F 78% 30.28 in 10.0 mi Variable 3.5 mph - N/A   Overcast
4:53 AM 28.0 °F - 21.9 °F 78% 30.29 in 10.0 mi Calm Calm - N/A   Overcast
5:53 AM 28.0 °F 24.2 °F 21.9 °F 78% 30.29 in 10.0 mi Variable 3.5 mph - N/A   Overcast
6:53 AM 28.0 °F - 21.9 °F 78% 30.30 in 10.0 mi Calm Calm - N/A   Overcast
7:53 AM 28.9 °F 25.2 °F 21.9 °F 75% 30.30 in 10.0 mi Variable 3.5 mph - N/A   Mostly Cloudy
8:53 AM 30.0 °F - 23.0 °F 75% 30.32 in 10.0 mi Calm Calm - N/A   Overcast
9:41 AM 32.0 °F 28.7 °F 24.8 °F 75% 30.28 in 10.0 mi SSW 3.5 mph - N/A   Scattered Clouds
9:53 AM 32.0 °F - 23.0 °F 69% 30.32 in 10.0 mi Calm Calm - N/A   Clear
10:22 AM 33.8 °F 30.8 °F 24.8 °F 70% 30.28 in 10.0 mi Variable 3.5 mph - N/A   Mostly Cloudy
10:53 AM 34.0 °F 29.8 °F 24.1 °F 67% 30.32 in 10.0 mi South 4.6 mph - N/A   Overcast
11:53 AM 36.0 °F 32.1 °F 25.0 °F 64% 30.31 in 10.0 mi SE 4.6 mph - N/A   Overcast
12:53 PM 37.0 °F 34.5 °F 25.0 °F 62% 30.32 in 10.0 mi Variable 3.5 mph - N/A   Overcast
1:53 PM 39.9 °F 35.1 °F 26.1 °F 58% 30.30 in 10.0 mi NNE 6.9 mph - N/A   Mostly Cloudy
2:48 PM 39.2 °F 35.0 °F 26.6 °F 61% 30.25 in 10.0 mi Variable 5.8 mph - N/A   Scattered Clouds
2:53 PM 39.9 °F 33.9 °F 26.1 °F 58% 30.29 in 10.0 mi NE 9.2 mph - N/A   Scattered Clouds
3:53 PM 37.9 °F 32.7 °F 25.0 °F 60% 30.29 in 10.0 mi NE 6.9 mph - N/A   Partly Cloudy
4:17 PM 37.4 °F 30.8 °F 26.6 °F 65% 30.25 in 10.0 mi ENE 9.2 mph - N/A   Mostly Cloudy
4:42 PM 35.6 °F 29.2 °F 24.8 °F 65% 30.25 in 10.0 mi NE 8.1 mph - N/A   Partly Cloudy
4:53 PM 35.1 °F 28.6 °F 25.0 °F 67% 30.29 in 10.0 mi ENE 8.1 mph - N/A   Partly Cloudy
5:53 PM 33.1 °F 26.1 °F 27.0 °F 78% 30.29 in 10.0 mi ENE 8.1 mph - N/A   Clear
6:53 PM 32.0 °F 25.6 °F 27.0 °F 82% 30.30 in 10.0 mi NE 6.9 mph - N/A   Clear
7:53 PM 28.9 °F 23.9 °F 25.0 °F 85% 30.31 in 10.0 mi ENE 4.6 mph - N/A   Clear
8:53 PM 28.0 °F - 25.0 °F 88% 30.32 in 10.0 mi Calm Calm - N/A   Partly Cloudy
9:13 PM 28.4 °F 24.6 °F 24.8 °F 86% 30.28 in 10.0 mi NE 3.5 mph - N/A   Mostly Cloudy
9:53 PM 30.9 °F 27.5 °F 26.1 °F 82% 30.32 in 10.0 mi ENE 3.5 mph - N/A   Overcast
10:53 PM 32.0 °F 28.7 °F 26.1 °F 79% 30.31 in 10.0 mi East 3.5 mph - N/A   Overcast
11:53 PM 30.9 °F 27.5 °F 27.0 °F 85% 30.31 in 8.0 mi ESE 3.5 mph - 0.00 in Snow Light Snow